| time (UTC) | temp F | wind direction | speed MPH | gust MPH | rain 1hr in | rain 24hr in | rain mn in | humidity % | barometer mb |
| 20260505013828 | 67 | 360 | 8.0 | 13.0 | 0.00 | 0.00 | 0.00 | 63 | 995.3 |
| 20260505013334 | 67 | 360 | 9.0 | 16.0 | 0.00 | 0.00 | 0.00 | 62 | 995.0 |
| 20260505012822 | 68 | 360 | 7.0 | 16.0 | 0.00 | 0.00 | 0.00 | 60 | 995.0 |
| 20260505012332 | 68 | 360 | 11.0 | 18.0 | 0.00 | 0.00 | 0.00 | 59 | 995.0 |
| 20260505011841 | 68 | 360 | 10.0 | 19.0 | 0.00 | 0.00 | 0.00 | 56 | 994.9 |
| 20260505011333 | 69 | 360 | 12.0 | 18.0 | 0.00 | 0.00 | 0.00 | 55 | 995.0 |
| 20260505010841 | 69 | 360 | 9.0 | 16.0 | 0.00 | 0.00 | 0.00 | 54 | 994.9 |
| 20260505010332 | 69 | 360 | 11.0 | 17.0 | 0.00 | 0.00 | 0.00 | 53 | 995.0 |
| 20260505005822 | 70 | 360 | 9.0 | 17.0 | 0.00 | 0.00 | 0.00 | 51 | 995.0 |
| 20260505005333 | 71 | 360 | 10.0 | 13.0 | 0.00 | 0.00 | 0.00 | 49 | 994.7 |
| 20260505004824 | 71 | 360 | 7.0 | 10.0 | 0.00 | 0.00 | 0.00 | 46 | 994.4 |
| 20260505004336 | 71 | 360 | 5.0 | 10.0 | 0.00 | 0.00 | 0.00 | 46 | 994.1 |
| 20260505003824 | 71 | 360 | 6.0 | 12.0 | 0.00 | 0.00 | 0.00 | 45 | 993.9 |
| 20260505003326 | 72 | 360 | 8.0 | 12.0 | 0.00 | 0.00 | 0.00 | 44 | 993.9 |
| 20260505002835 | 72 | 360 | 9.0 | 14.0 | 0.00 | 0.00 | 0.00 | 43 | 993.9 |
| 20260505002325 | 72 | 360 | 9.0 | 21.0 | 0.00 | 0.00 | 0.00 | 42 | 993.7 |
| 20260505001837 | 73 | 360 | 10.0 | 21.0 | 0.00 | 0.00 | 0.00 | 42 | 993.8 |
| 20260505001328 | 73 | 360 | 11.0 | 17.0 | 0.00 | 0.00 | 0.00 | 42 | 993.6 |
| 20260505000902 | 73 | 360 | 9.0 | 14.0 | 0.00 | 0.00 | 0.00 | 41 | 993.6 |
| 20260505000329 | 73 | 360 | 7.0 | 14.0 | 0.00 | 0.00 | 0.00 | 40 | 993.5 |
| 20260504235837 | 73 | 360 | 9.0 | 14.0 | 0.00 | 0.00 | 0.00 | 39 | 993.5 |
| 20260504235326 | 73 | 360 | 10.0 | 14.0 | 0.00 | 0.00 | 0.00 | 40 | 993.6 |
| 20260504234836 | 73 | 360 | 6.0 | 13.0 | 0.00 | 0.00 | 0.00 | 41 | 993.5 |
| 20260504234348 | 73 | 360 | 9.0 | 13.0 | 0.00 | 0.00 | 0.00 | 41 | 993.6 |
| 20260504233834 | 73 | 360 | 9.0 | 13.0 | 0.00 | 0.00 | 0.00 | 41 | 993.7 |
| 20260504233325 | 73 | 360 | 7.0 | 17.0 | 0.00 | 0.00 | 0.00 | 41 | 993.6 |
| 20260504232900 | 73 | 360 | 10.0 | 17.0 | 0.00 | 0.00 | 0.00 | 42 | 993.8 |
| 20260504232328 | 73 | 360 | 10.0 | 20.0 | 0.00 | 0.00 | 0.00 | 43 | 994.0 |
| 20260504231836 | 73 | 360 | 11.0 | 21.0 | 0.00 | 0.00 | 0.00 | 43 | 994.0 |
| 20260504231325 | 73 | 360 | 13.0 | 23.0 | 0.00 | 0.00 | 0.00 | 43 | 994.1 |
| 20260504230832 | 73 | 360 | 15.0 | 23.0 | 0.00 | 0.00 | 0.00 | 42 | 994.3 |
| 20260504230322 | 73 | 360 | 13.0 | 20.0 | 0.00 | 0.00 | 0.00 | 42 | 994.3 |
| 20260504225829 | 74 | 360 | 9.0 | 18.0 | 0.00 | 0.00 | 0.00 | 41 | 994.5 |
| 20260504225339 | 74 | 360 | 12.0 | 20.0 | 0.00 | 0.00 | 0.00 | 39 | 994.3 |
| 20260504224828 | 75 | 360 | 11.0 | 30.0 | 0.00 | 0.00 | 0.00 | 38 | 994.5 |
| 20260504224340 | 77 | 360 | 15.0 | 30.0 | 0.00 | 0.00 | 0.00 | 34 | 994.5 |
| 20260504223829 | 78 | 360 | 13.0 | 26.0 | 0.00 | 0.00 | 0.00 | 34 | 994.3 |
| 20260504223339 | 78 | 360 | 10.0 | 17.0 | 0.00 | 0.00 | 0.00 | 35 | 994.3 |
| 20260504222829 | 77 | 360 | 12.0 | 15.0 | 0.00 | 0.00 | 0.00 | 34 | 994.3 |
| 20260504222339 | 77 | 360 | 9.0 | 21.0 | 0.00 | 0.00 | 0.00 | 34 | 994.2 |
| 20260504221850 | 77 | 360 | 11.0 | 25.0 | 0.00 | 0.00 | 0.00 | 33 | 994.3 |
| 20260504221341 | 78 | 360 | 17.0 | 25.0 | 0.00 | 0.00 | 0.00 | 32 | 994.4 |
| 20260504220826 | 79 | 360 | 10.0 | 29.0 | 0.00 | 0.00 | 0.00 | 32 | 994.4 |
| 20260504220336 | 79 | 360 | 15.0 | 29.0 | 0.00 | 0.00 | 0.00 | 30 | 994.3 |
| 20260504215826 | 80 | 360 | 15.0 | 23.0 | 0.00 | 0.00 | 0.00 | 31 | 994.2 |
| 20260504215402 | 79 | 360 | 17.0 | 26.0 | 0.00 | 0.00 | 0.00 | 30 | 994.3 |
| 20260504214829 | 79 | 360 | 17.0 | 26.0 | 0.00 | 0.00 | 0.00 | 30 | 994.4 |
| 20260504214341 | 79 | 360 | 15.0 | 20.0 | 0.00 | 0.00 | 0.00 | 29 | 994.4 |
| 20260504213850 | 80 | 360 | 11.0 | 26.0 | 0.00 | 0.00 | 0.00 | 29 | 994.6 |
| 20260504213339 | 80 | 360 | 19.0 | 26.0 | 0.00 | 0.00 | 0.00 | 29 | 994.5 |
| 20260504212829 | 79 | 360 | 11.0 | 21.0 | 0.00 | 0.00 | 0.00 | 30 | 994.6 |
| 20260504212332 | 79 | 360 | 16.0 | 21.0 | 0.00 | 0.00 | 0.00 | 28 | 994.7 |
| 20260504211821 | 79 | 360 | 16.0 | 21.0 | 0.00 | 0.00 | 0.00 | 28 | 994.7 |
| 20260504211334 | 79 | 360 | 12.0 | 19.0 | 0.00 | 0.00 | 0.00 | 28 | 994.8 |
| 20260504210823 | 78 | 360 | 12.0 | 19.0 | 0.00 | 0.00 | 0.00 | 28 | 994.9 |
| 20260504210333 | 79 | 360 | 9.0 | 22.0 | 0.00 | 0.00 | 0.00 | 28 | 994.9 |
| 20260504205824 | 79 | 360 | 16.0 | 23.0 | 0.00 | 0.00 | 0.00 | 28 | 995.0 |
| 20260504205334 | 79 | 360 | 14.0 | 24.0 | 0.00 | 0.00 | 0.00 | 27 | 995.0 |
| 20260504204822 | 79 | 360 | 12.0 | 24.0 | 0.00 | 0.00 | 0.00 | 28 | 995.1 |
| 20260504204335 | 79 | 360 | 16.0 | 24.0 | 0.00 | 0.00 | 0.00 | 28 | 995.0 |
| 20260504203842 | 79 | 193 | 18.0 | 24.0 | 0.00 | 0.00 | 0.00 | 28 | 995.2 |
| 20260504203331 | 79 | 360 | 12.0 | 30.0 | 0.00 | 0.00 | 0.00 | 29 | 995.2 |
| 20260504202908 | 79 | 360 | 12.0 | 30.0 | 0.00 | 0.00 | 0.00 | 29 | 995.3 |
| 20260504202356 | 79 | 360 | 11.0 | 19.0 | 0.00 | 0.00 | 0.00 | 30 | 995.3 |
| 20260504201824 | 78 | 360 | 13.0 | 29.0 | 0.00 | 0.00 | 0.00 | 28 | 995.3 |
| 20260504201337 | 78 | 360 | 21.0 | 29.0 | 0.00 | 0.00 | 0.00 | 27 | 995.3 |
| 20260504200824 | 78 | 360 | 12.0 | 22.0 | 0.00 | 0.00 | 0.00 | 28 | 995.4 |
| 20260504200331 | 78 | 360 | 12.0 | 24.0 | 0.00 | 0.00 | 0.00 | 28 | 995.6 |
| 20260504195839 | 78 | 360 | 9.0 | 29.0 | 0.00 | 0.00 | 0.00 | 28 | 995.7 |
| 20260504195326 | 78 | 360 | 19.0 | 29.0 | 0.00 | 0.00 | 0.00 | 27 | 995.7 |
| 20260504194835 | 78 | 360 | 12.0 | 26.0 | 0.00 | 0.00 | 0.00 | 28 | 995.8 |
| 20260504194327 | 78 | 360 | 20.0 | 26.0 | 0.00 | 0.00 | 0.00 | 28 | 995.9 |
| 20260504193831 | 78 | 360 | 15.0 | 23.0 | 0.00 | 0.00 | 0.00 | 26 | 996.1 |
| 20260504193341 | 78 | 360 | 12.0 | 23.0 | 0.00 | 0.00 | 0.00 | 28 | 996.1 |
| 20260504192850 | 77 | 360 | 15.0 | 23.0 | 0.00 | 0.00 | 0.00 | 29 | 996.2 |
| 20260504192338 | 77 | 360 | 17.0 | 24.0 | 0.00 | 0.00 | 0.00 | 29 | 996.2 |
| 20260504191825 | 77 | 360 | 7.0 | 24.0 | 0.00 | 0.00 | 0.00 | 31 | 996.3 |
| 20260504191335 | 77 | 360 | 12.0 | 27.0 | 0.00 | 0.00 | 0.00 | 31 | 996.2 |
| 20260504190843 | 77 | 360 | 19.0 | 27.0 | 0.00 | 0.00 | 0.00 | 30 | 996.4 |
| 20260504190400 | 77 | 360 | 17.0 | 27.0 | 0.00 | 0.00 | 0.00 | 29 | 996.3 |
| 20260504185826 | 77 | 360 | 14.0 | 24.0 | 0.00 | 0.00 | 0.00 | 31 | 996.2 |
| 20260504185402 | 76 | 360 | 18.0 | 26.0 | 0.00 | 0.00 | 0.00 | 30 | 996.1 |
| 20260504184828 | 76 | 360 | 14.0 | 28.0 | 0.00 | 0.00 | 0.00 | 32 | 996.3 |
| 20260504184339 | 76 | 360 | 19.0 | 28.0 | 0.00 | 0.00 | 0.00 | 30 | 996.4 |
| 20260504183827 | 76 | 360 | 15.0 | 26.0 | 0.00 | 0.00 | 0.00 | 30 | 996.4 |
| 20260504183336 | 76 | 360 | 16.0 | 27.0 | 0.00 | 0.00 | 0.00 | 31 | 996.4 |
| 20260504182847 | 76 | 360 | 16.0 | 27.0 | 0.00 | 0.00 | 0.00 | 30 | 996.5 |
| 20260504182331 | 76 | 360 | 19.0 | 26.0 | 0.00 | 0.00 | 0.00 | 31 | 996.4 |
| 20260504181833 | 76 | 360 | 17.0 | 24.0 | 0.00 | 0.00 | 0.00 | 31 | 996.5 |
| 20260504181325 | 75 | 360 | 12.0 | 25.0 | 0.00 | 0.00 | 0.00 | 32 | 996.5 |
| 20260504180831 | 75 | 360 | 14.0 | 26.0 | 0.00 | 0.00 | 0.00 | 30 | 996.6 |
| 20260504180339 | 75 | 360 | 17.0 | 27.0 | 0.00 | 0.00 | 0.00 | 32 | 996.7 |
| 20260504175827 | 75 | 360 | 20.0 | 27.0 | 0.00 | 0.00 | 0.00 | 32 | 996.7 |
| 20260504175337 | 75 | 360 | 19.0 | 26.0 | 0.00 | 0.01 | 0.00 | 34 | 996.7 |
| 20260504174825 | 74 | 360 | 14.0 | 30.0 | 0.00 | 0.01 | 0.00 | 32 | 996.7 |
| 20260504174343 | 74 | 360 | 18.0 | 30.0 | 0.00 | 0.01 | 0.00 | 31 | 996.8 |
| 20260504173830 | 74 | 360 | 19.0 | 27.0 | 0.00 | 0.01 | 0.00 | 34 | 996.9 |
| 20260504173339 | 74 | 360 | 18.0 | 27.0 | 0.00 | 0.01 | 0.00 | 33 | 996.9 |
| 20260504172828 | 74 | 360 | 15.0 | 25.0 | 0.00 | 0.01 | 0.00 | 33 | 997.0 |
| 20260504172336 | 74 | 360 | 16.0 | 27.0 | 0.00 | 0.01 | 0.00 | 32 | 997.1 |
| 20260504171825 | 74 | 360 | 22.0 | 27.0 | 0.00 | 0.01 | 0.00 | 32 | 997.2 |
| 20260504171336 | 74 | 360 | 16.0 | 22.0 | 0.00 | 0.01 | 0.00 | 32 | 997.3 |
| 20260504170822 | 73 | 360 | 14.0 | 21.0 | 0.00 | 0.01 | 0.00 | 36 | 997.4 |
| 20260504170331 | 73 | 360 | 11.0 | 26.0 | 0.00 | 0.01 | 0.00 | 35 | 997.6 |
| 20260504160332 | 71 | 360 | 12.0 | 22.0 | 0.00 | 0.01 | 0.00 | 39 | 998.2 |
| 20260504150824 | 70 | 360 | 11.0 | 17.0 | 0.00 | 0.01 | 0.00 | 38 | 999.0 |
| 20260504150334 | 69 | 360 | 10.0 | 18.0 | 0.00 | 0.01 | 0.00 | 39 | 999.0 |
| 20260504141332 | 67 | 360 | 9.0 | 16.0 | 0.00 | 0.01 | 0.00 | 43 | 999.3 |
| 20260504140839 | 66 | 360 | 8.0 | 11.0 | 0.00 | 0.01 | 0.00 | 43 | 999.4 |
| 20260504140327 | 66 | 360 | 7.0 | 11.0 | 0.00 | 0.01 | 0.00 | 44 | 999.5 |
| 20260504130327 | 59 | 360 | 6.0 | 9.0 | 0.00 | 0.01 | 0.00 | 57 | 1000.3 |
| 20260504110343 | 50 | 360 | 6.0 | 9.0 | 0.00 | 0.01 | 0.00 | 74 | 1000.4 |
| 20260504100325 | 51 | 360 | 6.0 | 9.0 | 0.00 | 0.01 | 0.01 | 75 | 1000.6 |
| 20260504081827 | 52 | 208 | 5.0 | 7.0 | 0.00 | 0.01 | 0.01 | 76 | 1000.5 |
| 20260504081338 | 52 | 209 | 6.0 | 7.0 | 0.00 | 0.01 | 0.01 | 76 | 1000.4 |
| 20260504080826 | 52 | 360 | 5.0 | 8.0 | 0.00 | 0.01 | 0.01 | 76 | 1000.5 |
| 20260504080336 | 52 | 360 | 6.0 | 8.0 | 0.00 | 0.01 | 0.01 | 77 | 1000.6 |
| 20260504070338 | 54 | 209 | 5.0 | 8.0 | 0.00 | 0.01 | 0.01 | 73 | 1001.4 |
| 20260504050354 | 59 | 360 | 8.0 | 15.0 | 0.00 | 0.01 | 0.01 | 63 | 1002.2 |
| 20260504045823 | 59 | 360 | 10.0 | 15.0 | 0.00 | 0.01 | 0.01 | 63 | 1002.1 |
| 20260504045355 | 59 | 360 | 8.0 | 15.0 | 0.00 | 0.01 | 0.01 | 63 | 1002.2 |
| 20260504044824 | 59 | 360 | 10.0 | 15.0 | 0.00 | 0.01 | 0.01 | 62 | 1002.2 |
| 20260504044402 | 59 | 360 | 8.0 | 13.0 | 0.00 | 0.01 | 0.01 | 63 | 1002.2 |
| 20260504043828 | 59 | 360 | 6.0 | 12.0 | 0.00 | 0.01 | 0.01 | 63 | 1002.2 |
| 20260504043336 | 59 | 360 | 8.0 | 14.0 | 0.00 | 0.01 | 0.01 | 62 | 1002.1 |
| 20260504042826 | 59 | 360 | 9.0 | 14.0 | 0.00 | 0.01 | 0.01 | 63 | 1002.2 |
| 20260504042335 | 59 | 360 | 8.0 | 13.0 | 0.00 | 0.01 | 0.01 | 62 | 1002.3 |
| 20260504041823 | 59 | 360 | 7.0 | 12.0 | 0.00 | 0.01 | 0.01 | 62 | 1002.1 |
| 20260504041335 | 59 | 360 | 7.0 | 12.0 | 0.00 | 0.01 | 0.01 | 62 | 1002.1 |
| 20260504040824 | 59 | 360 | 6.0 | 12.0 | 0.00 | 0.01 | 0.01 | 62 | 1002.1 |
| 20260504040334 | 59 | 360 | 6.0 | 9.0 | 0.00 | 0.01 | 0.01 | 62 | 1002.2 |
| 20260504035824 | 60 | 360 | 7.0 | 9.0 | 0.00 | 0.01 | 0.01 | 62 | 1002.2 |
| 20260504035335 | 60 | 360 | 5.0 | 9.0 | 0.00 | 0.01 | 0.01 | 62 | 1002.2 |
| 20260504034824 | 60 | 184 | 5.0 | 8.0 | 0.00 | 0.01 | 0.01 | 61 | 1002.3 |
| 20260504034335 | 60 | 360 | 6.0 | 9.0 | 0.00 | 0.01 | 0.01 | 60 | 1002.3 |
| 20260504033823 | 60 | 360 | 6.0 | 9.0 | 0.00 | 0.01 | 0.01 | 61 | 1002.3 |
| 20260504033332 | 60 | 360 | 6.0 | 10.0 | 0.00 | 0.01 | 0.01 | 60 | 1002.3 |
| 20260504032842 | 60 | 360 | 5.0 | 10.0 | 0.00 | 0.01 | 0.01 | 60 | 1002.5 |
| 20260504032330 | 61 | 360 | 6.0 | 9.0 | 0.00 | 0.01 | 0.01 | 60 | 1002.4 |
| 20260504031820 | 61 | 360 | 7.0 | 9.0 | 0.00 | 0.01 | 0.01 | 60 | 1002.4 |
| 20260504031328 | 61 | 360 | 6.0 | 9.0 | 0.00 | 0.01 | 0.01 | 60 | 1002.5 |
| 20260504030837 | 61 | 360 | 6.0 | 9.0 | 0.00 | 0.01 | 0.01 | 59 | 1002.4 |
| 20260504030324 | 61 | 360 | 5.0 | 9.0 | 0.00 | 0.01 | 0.01 | 59 | 1002.5 |
| 20260504025835 | 61 | 360 | 6.0 | 9.0 | 0.00 | 0.01 | 0.01 | 59 | 1002.5 |
| 20260504025323 | 61 | 360 | 5.0 | 9.0 | 0.00 | 0.01 | 0.01 | 58 | 1002.6 |
| 20260504024833 | 61 | 360 | 6.0 | 11.0 | 0.00 | 0.01 | 0.01 | 58 | 1002.6 |
| 20260504024344 | 61 | 360 | 6.0 | 11.0 | 0.00 | 0.01 | 0.01 | 57 | 1002.5 |
| 20260504023850 | 61 | 360 | 6.0 | 9.0 | 0.00 | 0.01 | 0.01 | 57 | 1002.5 |
| 20260504023339 | 61 | 360 | 6.0 | 8.0 | 0.00 | 0.01 | 0.01 | 57 | 1002.5 |
| 20260504022828 | 61 | 360 | 5.0 | 8.0 | 0.00 | 0.01 | 0.01 | 57 | 1002.6 |
| 20260504022335 | 61 | 360 | 5.0 | 7.0 | 0.00 | 0.01 | 0.01 | 57 | 1002.5 |
| 20260504021822 | 61 | 189 | 4.0 | 7.0 | 0.00 | 0.01 | 0.01 | 57 | 1002.4 |
| 20260504021334 | 61 | 360 | 5.0 | 7.0 | 0.00 | 0.01 | 0.01 | 57 | 1002.4 |
| 20260504020844 | 61 | 360 | 4.0 | 6.0 | 0.00 | 0.01 | 0.01 | 57 | 1002.4 |
| 20260504020352 | 62 | 192 | 4.0 | 6.0 | 0.00 | 0.01 | 0.01 | 56 | 1002.3 |
| 20260504015348 | 62 | 360 | 5.0 | 7.0 | 0.00 | 0.01 | 0.01 | 55 | 1002.3 |
| 20260504014836 | 62 | 360 | 5.0 | 7.0 | 0.00 | 0.01 | 0.01 | 55 | 1002.3 |